Regional Weather Roundup
Issued by NWS

Home | Current Version | Previous Version | Graphics & Text | Print | Product List | Glossary On
Versions: 1 2 3 4 5 6 7 8 9 10 11 12 13 14 15 16 17 18 19 20 21 22 23 24 25 26 27 28 29 30 31 32 33 34 35 36 37 38 39 40 41 42 43 44 45 46 47 48 49 50
000
ASUS43 KMPX 231410
RWRMN
WEATHER ROUNDUP FOR MINNESOTA
NATIONAL WEATHER SERVICE TWIN CITIES/CHANHASSEN MN
900 AM CDT SAT AUG 23 2014


NOTE: "FAIR" INDICATES FEW OR NO CLOUDS BELOW 12,000 FEET WITH NO
SIGNIFICANT WEATHER AND/OR OBSTRUCTIONS TO VISIBILITY. N/A MEANS
CURRENT SKY AND/OR WEATHER CONDITIONS ARE NOT AVAILABLE.

MNZ060>063-068>070-231500-
   Twin Cities Metro

CITY           SKY/WX    TMP DP  RH WIND       PRES   REMARKS
TWIN CITIES    CLOUDY    70  67  90 NE7       30.00S
ST PAUL        CLOUDY    70  66  87 NE5       30.00F
CRYSTAL        CLOUDY    69  66  90 NE6       29.99S
BLAINE         CLOUDY    70  70 100 NE5       30.00F
LAKEVILLE      CLOUDY    68  66  94 E5        30.00S FOG
EDEN PRAIRIE   CLOUDY    70  68  93 NE6       29.98F FOG
SOUTH ST PAUL  CLOUDY    70  67  88 NE6       30.00S
LAKE ELMO      CLOUDY    68  66  94 NE7       30.02S
$$
MNZ001>005-007-008-013>017-022>024-027-028-231500-
   Northwest Minnesota

CITY           SKY/WX    TMP DP  RH WIND       PRES   REMARKS
BEMIDJI        CLOUDY    67  66  98 SE8       30.04F
HALLOCK        CLOUDY    61  57  88 N9        30.07F
ROSEAU         CLOUDY    64  59  82 N8        30.07F
WARROAD        CLOUDY    64  61  88 N6        30.08S FOG
THIEF RVR FALL CLOUDY    64  63  94 NE8       30.05S
CROOKSTON      CLOUDY    64  64 100 NE6       30.04S FOG
FOSSTON        CLOUDY    68  66  94 CALM      30.03F
DETROIT LAKES  CLOUDY    68  64  88 SE8       30.03S
MOORHEAD       CLOUDY    68  68 100 NE5       30.00F
PARK RAPIDS    CLOUDY    67  65  93 E6        30.03F
MAHNOMEN       CLOUDY    69  67  94 E6        30.02S
$$
MNZ006-009>011-018-025>026-231500-
   North Central Minnesota

CITY           SKY/WX    TMP DP  RH WIND       PRES   REMARKS
BAUDETTE       CLOUDY    66  65  96 E6        30.07S
FLAG ISLAND    PTSUNNY   70  64  83 NE7       30.08R
INTL FALLS     CLOUDY    65  64  97 E9        30.07S
WASKISH        CLOUDY    66  64  94 CALM      30.06S
BIG FORK       CLOUDY    66  64  94 SE3       30.08S FOG
LONGVILLE      CLOUDY    64  63  94 CALM      30.05F
GRAND RAPIDS   CLOUDY    63  59  88 CALM      30.07F
CRANE LAKE     CLOUDY    66  63  88 CALM      30.10S
ORR            CLOUDY    66  63  88 CALM      30.06F
COOK           CLOUDY    66  63  88 SE3       30.09S
WALKER         CLOUDY    66  64  94 E6        30.04F
$$
MNZ012-019>021-037-231500-
   Northeast Minnesota

CITY           SKY/WX    TMP DP  RH WIND       PRES   REMARKS
DULUTH         CLOUDY    65  61  87 E8        30.07S
ELY            CLOUDY    66  61  82 NE6       30.08F
HIBBING        CLOUDY    68  62  81 E6        30.08S
EVELETH        CLOUDY    63  63 100 CALM      30.09S
DULUTH HARBOR  CLOUDY    63  61  94 NE12      30.07R
TWO HARBORS    CLOUDY    64  59  82 NE5       30.05S
SILVER BAY     PTSUNNY   63  63 100 NE7       30.06S
GRAND MARAIS     N/A     64  60  87 E6        30.07S
G MARAIS ARPRT PTSUNNY   63  57  82 N6        30.12S
$$
MNZ029>031-032-039>041-046>048-054>057-064-231500-
   West Central Minnesota

CITY           SKY/WX    TMP DP  RH WIND       PRES   REMARKS
FERGUS FALLS   CLOUDY    70  66  88 E3        29.98F
WHEATON        CLOUDY    66  66 100 E10       29.98S
MORRIS         LGT RAIN  70  68  94 E7        29.97R
ALEXANDRIA     CLOUDY    67  64  90 E13       30.00F
ELBOW LAKE     FAIR      69  66  92 E8        29.98F
WADENA         CLOUDY    66  64  94 E7        30.02S FOG
GLENWOOD       CLOUDY    66  64  94 E8        30.00S FOG
APPLETON       DRIZZLE   70  66  88 E10       29.94S
BENSON         LGT RAIN  68  66  94 E7        29.96S
ORTONVILLE     LGT RAIN  70  66  88 E9        29.93F
MADISON        DRIZZLE   72  70  94 E12       29.92F
WILLMAR        CLOUDY    68  64  88 E12G17    29.96F FOG
$$
MNZ033>034-036-042>043-049>051-058-059-231500-
   Central Minnesota

CITY           SKY/WX    TMP DP  RH WIND       PRES   REMARKS
ST CLOUD       CLOUDY    65  63  93 NE8       30.01F FOG
SAUK CENTRE    CLOUDY    64  63  94 E8        29.99F
PAYNESVILLE    CLOUDY    64  63  99 NE9       29.99F FOG
AITKIN         CLOUDY    64  59  82 E3        30.04S HAZE
PINE RIVER     CLOUDY    64  63  94 SE7       30.08S
BRAINERD       CLOUDY    63  61  93 E6        30.05S
STAPLES        CLOUDY    64  63  94 E6        30.03S
LONG PRAIRIE   CLOUDY    63  61  94 NE7       30.02S
LITTLE FALLS   CLOUDY    63  61  94 E6        30.03S
LITCHFIELD     CLOUDY    68  68 100 E10       29.99F FOG
BUFFALO        CLOUDY    66  64  93 NE8       30.01F
MAPLE LAKE     CLOUDY    67  66  99 NE6       30.01F FOG
$$
MNZ037-044-045-052-053-231500-
   East Central Minnesota

CITY           SKY/WX    TMP DP  RH WIND       PRES   REMARKS
PRINCETON      CLOUDY    64  63  94 E5        30.02F
MORA           CLOUDY    63  61  94 CALM      30.05S
CAMBRIDGE      CLOUDY    66  59  77 E7        30.00F HAZE
RUSH CITY      CLOUDY    64  63  96 NE6       30.03S
MOOSE LAKE     CLOUDY    63  61  94 NE8       30.03F
HINCKLEY       CLOUDY    64  63  94 NE3       30.04S
CLOQUET        CLOUDY    64  61  88 NE8       30.07S
MCGREGOR       CLOUDY    63  61  94 E6        30.06S
$$
MNZ071>073-080-081-089-090-097-098-231500-
   Southwest Minnesota

CITY           SKY/WX    TMP DP  RH WIND       PRES   REMARKS
MONTEVIDEO     CLOUDY    68  68 100 E8        29.94F FOG
GRANITE FALLS  CLOUDY    68  67  98 NE5       29.94R
CANBY          CLOUDY    68  67  96 E8        29.94R FOG
MARSHALL       CLOUDY    70  64  83 E8        29.91S
REDWOOD FALLS  CLOUDY    68  67  96 E12       29.89F FOG
OLIVIA         CLOUDY    70  68  94 E9G17     29.92F FOG
PIPESTONE      CLOUDY    70  66  88 E12G21    29.90F
WINDOM         CLOUDY    70  66  88 E9        29.91R
WORTHINGTON      N/A     72  12  10 E13       29.93R
JACKSON        CLOUDY    68  66  94 E12       29.93F
TRACY          CLOUDY    69  68  96 E3        29.92S FOG
SLAYTON        CLOUDY    68  67  98 CALM      29.93F FOG
$$
MNZ065>067-074>077-082>085-091>093-231500-
   South Central Minnesota

CITY           SKY/WX    TMP DP  RH WIND       PRES   REMARKS
MANKATO        CLOUDY    70  64  83 E8        29.99S VSB 1
NEW ULM        CLOUDY    68  68 100 E8        29.96F FOG
ST JAMES       LGT RAIN  70  66  88 NE17      29.91F
FAIRMONT       CLOUDY    57  57 100 E8        29.93F
GLENCOE        FOG       69  66  92 E6        29.99F VSB 1/2
FARIBAULT      CLOUDY    72  66  83 E5        30.01R HAZE
OWATONNA       LGT RAIN  70  66  88 E5        30.02R VSB 1/2
WASECA         LGT RAIN  66  63  88 E7        30.03S VSB 1
ALBERT LEA     RAIN      70  68  94 CALM      30.02R
$$
MNZ078>079-086>088-094>096-231500-
   Southeast Minnesota

CITY           SKY/WX    TMP DP  RH WIND       PRES   REMARKS
ROCHESTER      FOG       70  68  93 NE5       30.02R VSB 1/4
RED WING       CLOUDY    70  66  88 E5        29.99S FOG
STANTON        CLOUDY    71  68  90 E5        30.00R FOG
DODGE CENTER   FOG       70  68  94 E5        30.02R VSB 1/2
WINONA         CLOUDY    73  72  94 CALM      29.99F
AUSTIN         TSTM      70  70 100 CALM      30.01R
PRESTON        FOG       68  69 100 NE3       30.01S VSB 1/2
$$
ABBREVIATIONS USED IN REMARKS
   TC - TEMPERATURES IN CELSIUS
  WCI - WIND CHILL INDEX
   HX - HEAT INDEX
  VSB - VISIBILITY
$$


USA.gov is the U.S. government's official web portal to all federal, state and local government web resources and services.